H1 CPF 2 NER 2022 11 17 9 321 01 glonass133 H2 1403201 9133 40001 2022 11 17 0 0 0 2022 11 20 23 45 0 900 1 1 0 0 0 1 H9 10 0 59900 0.00000 0 -14405141.685 20852272.021 -2728515.229 10 0 59900 900.00000 0 -13959865.332 20491108.110 -5915416.547 10 0 59900 1800.00000 0 -13374912.377 19750961.641 -8987158.133 10 0 59900 2700.00000 0 -12709207.598 18628603.784 -11883948.255 10 0 59900 3600.00000 0 -12022443.258 17134424.149 -14549417.306 10 0 59900 4500.00000 0 -11372394.987 15292190.798 -16931721.289 10 0 59900 5400.00000 0 -10812334.901 13138258.847 -18984554.210 10 0 59900 6300.00000 0 -10388652.116 10720260.665 -20668049.388 10 0 59900 7200.00000 0 -10138781.672 8095332.610 -21949552.138 10 0 59900 8100.00000 0 -10089529.398 5327952.551 -22804249.217 10 0 59900 9000.00000 0 -10255863.195 2487478.507 -23215643.461 10 0 59900 9900.00000 0 -10640221.185 -354508.936 -23175865.174 10 0 59900 10800.00000 0 -11232365.293 -3126950.107 -22685815.124 10 0 59900 11700.00000 0 -12009785.723 -5762022.043 -21755137.229 10 0 59900 12600.00000 0 -12938638.689 -8197714.426 -20402022.186 10 0 59900 13500.00000 0 -13975177.448 -10380159.776 -18652846.462 10 0 59900 14400.00000 0 -15067616.123 -12265622.385 -16541654.014 10 0 59900 15300.00000 0 -16158347.730 -13822064.757 -14109491.037 10 0 59900 16200.00000 0 -17186423.155 -15030228.078 -11403606.713 10 0 59900 17100.00000 0 -18090186.955 -15884183.453 -8476535.377 10 0 59900 18000.00000 0 -18809959.272 -16391332.589 -5385077.854 10 0 59900 18900.00000 0 -19290651.337 -16571859.580 -2189201.567 10 0 59900 19800.00000 0 -19484204.728 -16457658.243 1049119.466 10 0 59900 20700.00000 0 -19351751.952 -16090781.187 4267102.302 10 0 59900 21600.00000 0 -18865407.538 -15521476.745 7402367.464 10 0 59900 22500.00000 0 -18009614.255 -14805896.879 10394142.759 10 0 59900 23400.00000 0 -16781987.598 -14003572.816 13184435.458 10 0 59900 24300.00000 0 -15193622.593 -13174764.685 15719150.527 10 0 59900 25200.00000 0 -13268849.208 -12377796.476 17949133.752 10 0 59900 26100.00000 0 -11044445.606 -11666488.151 19831120.008 10 0 59900 27000.00000 0 -8568340.802 -11087792.544 21328568.922 10 0 59900 27900.00000 0 -5897859.290 -10679736.057 22412372.260 10 0 59900 28800.00000 0 -3097579.234 -10469749.559 23061419.674 10 0 59900 29700.00000 0 -236891.625 -10473459.663 23263012.110 10 0 59900 30600.00000 0 2612639.799 -10693991.504 23013114.801 10 0 59900 31500.00000 0 5380009.562 -11121812.933 22316444.566 10 0 59900 32400.00000 0 7997480.285 -11735127.592 21186389.123 10 0 59900 33300.00000 0 10403159.700 -12500801.434 19644759.053 10 0 59900 34200.00000 0 12543338.279 -13375784.884 17721376.144 10 0 59900 35100.00000 0 14374490.572 -14308971.887 15453504.983 10 0 59900 36000.00000 0 15864856.898 -15243418.442 12885137.657 10 0 59900 36900.00000 0 16995539.252 -16118827.632 10066144.640 10 0 59900 37800.00000 0 17761065.456 -16874196.443 7051307.681 10 0 59900 38700.00000 0 18169397.917 -17450512.293 3899253.265 10 0 59900 39600.00000 0 18241386.679 -17793384.553 671307.607 10 0 59900 40500.00000 0 18009690.211 -17855498.724 -2569704.007 10 0 59900 41400.00000 0 17517210.101 -17598788.134 -5760689.270 10 0 59900 42300.00000 0 16815106.607 -16996229.902 -8839527.150 10 0 59900 43200.00000 0 15960480.058 -16033187.842 -11746287.109 10 0 59900 44100.00000 0 15013817.350 -14708244.335 -14424404.418 10 0 59900 45000.00000 0 14036312.677 -13033485.072 -16821787.593 10 0 59900 45900.00000 0 13087176.852 -11034223.896 -18891835.789 10 0 59900 46800.00000 0 12221049.689 -8748178.813 -20594346.019 10 0 59900 47700.00000 0 11485625.187 -6224133.481 -21896292.521 10 0 59900 48600.00000 0 10919589.804 -3520140.121 -22772463.547 10 0 59900 49500.00000 0 10550960.427 -701338.783 -23205943.828 10 0 59900 50400.00000 0 10395891.482 2162516.038 -23188434.126 10 0 59900 51300.00000 0 10458000.490 4999718.716 -22720402.592 10 0 59900 52200.00000 0 10728239.505 7739355.379 -21811065.824 10 0 59900 53100.00000 0 11185316.786 10314012.859 -20478200.755 10 0 59900 54000.00000 0 11796650.047 12662342.117 -18747791.607 10 0 59900 54900.00000 0 12519810.378 14731370.675 -16653519.146 10 0 59900 55800.00000 0 13304395.480 16478469.172 -14236102.390 10 0 59900 56700.00000 0 14094253.012 17872891.681 -11542505.614 10 0 59900 57600.00000 0 14829960.241 18896827.189 -8625025.953 10 0 59900 58500.00000 0 15451455.540 19545919.891 -5540279.264 10 0 59900 59400.00000 0 15900710.971 19829238.129 -2348103.751 10 0 59900 60300.00000 0 16124333.501 19768694.710 889597.593 10 0 59900 61200.00000 0 16075985.373 19397944.050 4110053.334 10 0 59900 62100.00000 0 15718521.768 18760803.473 7250835.790 10 0 59900 63000.00000 0 15025755.662 17909265.577 10251065.837 10 0 59900 63900.00000 0 13983775.397 16901185.597 13052587.168 10 0 59900 64800.00000 0 12591759.078 15797741.035 15601087.709 10 0 59900 65700.00000 0 10862250.814 14660770.157 17847146.934 10 0 59900 66600.00000 0 8820886.199 13550100.832 19747189.246 10 0 59900 67500.00000 0 6505577.165 12520981.423 21264325.576 10 0 59900 68400.00000 0 3965188.642 11621721.075 22369067.397 10 0 59900 69300.00000 0 1257760.522 10891638.007 23039899.696 10 0 59900 70200.00000 0 -1551652.878 10359401.579 23263702.062 10 0 59900 71100.00000 0 -4393437.854 10041837.599 23036009.667 10 0 59900 72000.00000 0 -7196070.384 9943247.185 22361108.782 10 0 59900 72900.00000 0 -9888850.673 10055268.202 21251964.342 10 0 59900 73800.00000 0 -12404610.736 10357285.718 19729980.073 10 0 59900 74700.00000 0 -14682283.103 10817375.035 17824594.789 10 0 59900 75600.00000 0 -16669224.289 11393738.430 15572721.535 10 0 59900 76500.00000 0 -18323196.265 12036575.790 13018039.307 10 0 59900 77400.00000 0 -19613923.054 12690310.770 10210150.250 10 0 59900 78300.00000 0 -20524157.112 13296078.636 7203618.022 10 0 59900 79200.00000 0 -21050210.549 13794370.454 4056905.723 10 0 59900 80100.00000 0 -21201928.679 14127721.128 831234.259 10 0 59900 81000.00000 0 -21002107.119 14243326.546 -2410616.128 10 0 59900 81900.00000 0 -20485377.300 14095477.736 -5605536.994 10 0 59900 82800.00000 0 -19696608.028 13647707.546 -8691330.313 10 0 59900 83700.00000 0 -18688891.471 12874557.541 -11607929.280 10 0 59900 84600.00000 0 -17521199.669 11762888.954 -14298576.405 10 0 59900 85500.00000 0 -16255811.701 10312681.169 -16710934.855 10 0 59901 0.00000 0 -14955621.304 8537283.217 -18798110.632 10 0 59901 900.00000 0 -13681438.705 6463105.919 -20519566.363 10 0 59901 1800.00000 0 -12489402.756 4128769.626 -21841906.220 10 0 59901 2700.00000 0 -11428610.219 1583739.719 -22739520.813 10 0 59901 3600.00000 0 -10539063.499 -1113490.927 -23195077.256 10 0 59901 4500.00000 0 -9850021.813 -3897597.699 -23199846.906 10 0 59901 5400.00000 0 -9378824.243 -6698906.740 -22753865.052 10 0 59901 6300.00000 0 -9130232.929 -9446061.276 -21865920.367 10 0 59901 7200.00000 0 -9096322.651 -12068761.222 -20553375.043 10 0 59901 8100.00000 0 -9256920.116 -14500462.954 -18841819.735 10 0 59901 9000.00000 0 -9580573.218 -16680927.898 -16764570.369 10 0 59901 9900.00000 0 -10026008.473 -18558514.920 -14362016.870 10 0 59901 10800.00000 0 -10544014.446 -20092122.382 -11680836.474 10 0 59901 11700.00000 0 -11079671.285 -21252700.258 -8773086.839 10 0 59901 12600.00000 0 -11574832.073 -22024270.552 -5695196.480 10 0 59901 13500.00000 0 -11970751.228 -22404414.767 -2506871.945 10 0 59901 14400.00000 0 -12210749.079 -22404209.316 730057.268 10 0 59901 15300.00000 0 -12242800.307 -22047612.658 3952833.728 10 0 59901 16200.00000 0 -12021937.100 -21370330.827 7098984.078 10 0 59901 17100.00000 0 -11512365.697 -20418209.591 10107524.800 10 0 59901 18000.00000 0 -10689206.974 -19245221.129 12920138.547 10 0 59901 18900.00000 0 -9539787.420 -17911129.874 15482298.689 10 0 59901 19800.00000 0 -8064425.537 -16478935.325 17744320.757 10 0 59901 20700.00000 0 -6276679.753 -15012198.759 19662320.870 10 0 59901 21600.00000 0 -4203046.123 -13572365.410 21199063.194 10 0 59901 22500.00000 0 -1882116.917 -12216193.711 22324680.538 10 0 59901 23400.00000 0 636766.531 -10993398.686 23017254.512 10 0 59901 24300.00000 0 3295312.478 -9944607.609 23263244.255 10 0 59901 25200.00000 0 6028456.015 -9099713.120 23057755.432 10 0 59901 26100.00000 0 8766826.127 -8476692.599 22404643.933 10 0 59901 27000.00000 0 11439401.647 -8080943.246 21316451.712 10 0 59901 27900.00000 0 13976247.074 -7905160.988 19814175.086 10 0 59901 28800.00000 0 16311215.329 -7929768.729 17926868.976 10 0 59901 29700.00000 0 18384505.533 -8123876.378 15691093.578 10 0 59901 30600.00000 0 20144969.381 -8446732.759 13150213.096 10 0 59901 31500.00000 0 21552069.607 -8849608.523 10353559.235 10 0 59901 32400.00000 0 22577408.285 -9278030.695 7355475.030 10 0 59901 33300.00000 0 23205760.498 -9674274.208 4214257.284 10 0 59901 34200.00000 0 23435569.472 -9980004.439 991018.368 10 0 59901 35100.00000 0 23278882.155 -10138957.946 -2251509.980 10 0 59901 36000.00000 0 22760727.910 -10099546.627 -5450206.722 10 0 59901 36900.00000 0 21917966.790 -9817273.566 -8542800.348 10 0 59901 37800.00000 0 20797656.550 -9256856.752 -11469091.135 10 0 59901 38700.00000 0 19455008.138 -8393969.279 -14172131.926 10 0 59901 39600.00000 0 17951016.858 -7216521.145 -16599343.325 10 0 59901 40500.00000 0 16349870.132 -5725427.359 -18703540.945 10 0 59901 41400.00000 0 14716241.930 -3934829.050 -20443854.348 10 0 59901 42300.00000 0 13112588.466 -1871757.658 -21786519.725 10 0 59901 43200.00000 0 11596559.152 424744.231 -22705531.310 10 0 59901 44100.00000 0 10218631.488 2905008.893 -23183139.471 10 0 59901 45000.00000 0 9020068.646 5510578.587 -23210186.579 10 0 59901 45900.00000 0 8031284.482 8176413.444 -22786275.055 10 0 59901 46800.00000 0 7270683.228 10833380.435 -21919765.192 10 0 59901 47700.00000 0 6744021.062 13410920.106 -20627603.558 10 0 59901 48600.00000 0 6444314.680 15839780.680 -18934985.940 10 0 59901 49500.00000 0 6352299.082 18054706.492 -16874861.728 10 0 59901 50400.00000 0 6437413.907 19996969.618 -14487289.673 10 0 59901 51300.00000 0 6659275.502 21616640.308 -11818657.537 10 0 59901 52200.00000 0 6969571.798 22874502.655 -8920780.737 10 0 59901 53100.00000 0 7314299.418 23743536.628 -5849897.403 10 0 59901 54000.00000 0 7636248.218 24209905.748 -2665579.179 10 0 59901 54900.00000 0 7877628.194 24273410.160 570421.306 10 0 59901 55800.00000 0 7982727.820 23947387.081 3795364.019 10 0 59901 56700.00000 0 7900491.569 23258063.626 6946733.248 10 0 59901 57600.00000 0 7586907.866 22243389.743 9963444.214 10 0 59901 58500.00000 0 7007106.674 20951400.523 12787021.419 10 0 59901 59400.00000 0 6137078.037 19438176.695 15362726.257 10 0 59901 60300.00000 0 4964938.760 17765488.589 17640612.571 10 0 59901 61200.00000 0 3491693.183 15998221.926 19576490.114 10 0 59901 62100.00000 0 1731455.041 14201692.626 21132777.868 10 0 59901 63000.00000 0 -288880.399 12438962.276 22279231.220 10 0 59901 63900.00000 0 -2530501.809 10768265.774 22993529.274 10 0 59901 64800.00000 0 -4944050.713 9240657.934 23261711.224 10 0 59901 65700.00000 0 -7471438.773 7897976.715 23078453.304 10 0 59901 66600.00000 0 -10048039.650 6771207.778 22447180.663 10 0 59901 67500.00000 0 -12605166.040 5879318.382 21380011.422 10 0 59901 68400.00000 0 -15072730.339 5228609.332 19897533.150 10 0 59901 69300.00000 0 -17381979.253 4812612.201 18028415.028 10 0 59901 70200.00000 0 -19468189.200 4612536.294 15808862.122 10 0 59901 71100.00000 0 -21273210.360 4598246.783 13281921.162 10 0 59901 72000.00000 0 -22747752.981 4729732.987 10496650.434 10 0 59901 72900.00000 0 -23853319.866 4959004.884 7507169.184 10 0 59901 73800.00000 0 -24563703.476 5232337.477 4371604.663 10 0 59901 74700.00000 0 -24865984.064 5492767.588 1150957.457 10 0 59901 75600.00000 0 -24760986.329 5682736.457 -2092092.359 10 0 59901 76500.00000 0 -24263174.955 5746765.071 -5294414.200 10 0 59901 77400.00000 0 -23399993.325 5634047.458 -8393665.952 10 0 59901 78300.00000 0 -22210673.499 5300850.562 -11329517.684 10 0 59901 79200.00000 0 -20744568.141 4712617.548 -14044835.064 10 0 59901 80100.00000 0 -19059075.430 3845684.123 -16486798.362 10 0 59901 81000.00000 0 -17217245.258 2688534.139 -18607934.546 10 0 59901 81900.00000 0 -15285168.249 1242540.410 -20367042.016 10 0 59901 82800.00000 0 -13329258.110 -477841.152 -21729989.885 10 0 59901 83700.00000 0 -11413541.801 -2445432.839 -22670376.675 10 0 59901 84600.00000 0 -9597071.196 -4621237.157 -23170036.203 10 0 59901 85500.00000 0 -7931564.340 -6955841.971 -23219381.611 10 0 59902 0.00000 0 -6459374.330 -9391270.102 -22817581.847 10 0 59902 900.00000 0 -5211868.806 -11863197.760 -21972567.719 10 0 59902 1800.00000 0 -4208288.327 -14303446.248 -20700868.814 10 0 59902 2700.00000 0 -3455126.969 -16642647.922 -19027284.378 10 0 59902 3600.00000 0 -2946061.297 -18812972.625 -16984395.358 10 0 59902 4500.00000 0 -2662428.057 -20750802.877 -14611927.223 10 0 59902 5400.00000 0 -2574229.010 -22399246.882 -11955976.026 10 0 59902 6300.00000 0 -2641619.211 -23710385.392 -9068112.630 10 0 59902 7200.00000 0 -2816815.023 -24647159.428 -6004382.435 10 0 59902 8100.00000 0 -3046340.575 -25184820.923 -2824219.843 10 0 59902 9000.00000 0 -3273517.392 -25311886.443 410701.704 10 0 59902 9900.00000 0 -3441091.829 -25030554.821 3637661.856 10 0 59902 10800.00000 0 -3493889.234 -24356571.867 6794104.800 10 0 59902 11700.00000 0 -3381382.757 -23318548.270 9818846.742 10 0 59902 12600.00000 0 -3060068.344 -21956759.546 12653256.230 10 0 59902 13500.00000 0 -2495545.625 -20321478.345 15242384.837 10 0 59902 14400.00000 0 -1664216.721 -18470908.705 17536026.767 10 0 59902 15300.00000 0 -554530.911 -16468808.308 19489687.309 10 0 59902 16200.00000 0 832277.980 -14381897.512 21065441.955 10 0 59902 17100.00000 0 2481993.646 -12277162.599 22232670.114 10 0 59902 18000.00000 0 4367768.560 -10219165.005 22968649.551 10 0 59902 18900.00000 0 6451011.536 -8267467.898 23259000.374 10 0 59902 19800.00000 0 8682776.477 -6474286.599 23097969.930 10 0 59902 20700.00000 0 11005596.299 -4882460.180 22488552.858 10 0 59902 21600.00000 0 13355687.491 -3523828.309 21442443.378 10 0 59902 22500.00000 0 15665435.134 -2418080.738 19979819.923 10 0 59902 23400.00000 0 17866056.045 -1572127.377 18128965.251 10 0 59902 24300.00000 0 19890329.922 -980015.243 15925728.268 10 0 59902 25200.00000 0 21675284.900 -623395.736 13412836.859 10 0 59902 26100.00000 0 23164725.216 -472522.636 10639074.142 10 0 59902 27000.00000 0 24311494.756 -487738.649 7658333.439 10 0 59902 27900.00000 0 25079380.912 -621387.467 4528569.937 10 0 59902 28800.00000 0 25444577.896 -820070.038 1310669.580 10 0 59902 29700.00000 0 25396647.154 -1027148.709 -1932742.354 10 0 59902 30600.00000 0 24938933.695 -1185392.102 -5138529.026 10 0 59902 31500.00000 0 24088420.308 -1239647.329 -8244281.065 10 0 59902 32400.00000 0 22875025.624 -1139424.838 -11189541.584 10 0 59902 33300.00000 0 21340375.712 -841284.864 -13916992.150 10 0 59902 34200.00000 0 19536101.413 -310923.041 -16373575.511 10 0 59902 35100.00000 0 17521733.657 475134.301 -18511532.503 10 0 59902 36000.00000 0 15362285.968 1528297.847 -20289332.564 10 0 59902 36900.00000 0 13125626.327 2847198.744 -21672479.617 10 0 59902 37800.00000 0 10879749.098 4417518.540 -22634178.043 10 0 59902 38700.00000 0 8690061.336 6212373.190 -23155846.349 10 0 59902 39600.00000 0 6616796.899 8193235.186 -23227469.345 10 0 59902 40500.00000 0 4712665.694 10311355.418 -22847782.900 10 0 59902 41400.00000 0 3020835.194 12509625.461 -22024288.564 10 0 59902 42300.00000 0 1573327.114 14724802.653 -20773098.553 10 0 59902 43200.00000 0 389894.433 16890005.370 -19118614.756 10 0 59902 44100.00000 0 -522576.203 18937374.774 -17093048.393 10 0 59902 45000.00000 0 -1170113.654 20800792.374 -14735789.923 10 0 59902 45900.00000 0 -1571162.924 22418540.562 -12092641.532 10 0 59902 46800.00000 0 -1755559.964 23735795.673 -9214926.975 10 0 59902 47700.00000 0 -1763025.203 24706849.979 -6158496.038 10 0 59902 48600.00000 0 -1641240.398 25296970.424 -2982642.721 10 0 59902 49500.00000 0 -1443590.761 25483816.938 251042.061 10 0 59902 50400.00000 0 -1226668.085 25258361.476 3479861.086 10 0 59902 51300.00000 0 -1047640.632 24625269.765 6641221.881 10 0 59902 52200.00000 0 -961600.924 23602730.044 9673844.977 10 0 59902 53100.00000 0 -1019003.413 22221736.103 12518946.134 10 0 59902 54000.00000 0 -1263300.192 20524854.541 15121370.024 10 0 59902 54900.00000 0 -1728874.543 18564527.507 17430653.857 10 0 59902 55800.00000 0 -2439359.636 16400981.380 19402000.788 10 0 59902 56700.00000 0 -3406413.697 14099828.022 20997144.830 10 0 59902 57600.00000 0 -4629003.944 11729457.801 22185091.072 10 0 59902 58500.00000 0 -6093230.534 9358332.136 22942717.234 10 0 59902 59400.00000 0 -7772699.368 7052287.364 23255225.226 10 0 59902 60300.00000 0 -9629429.951 4871961.164 23116433.967 10 0 59902 61200.00000 0 -11615262.155 2870447.915 22528907.561 10 0 59902 62100.00000 0 -13673705.051 1091279.858 21503915.782 10 0 59902 63000.00000 0 -15742152.372 -433182.380 20061226.851 10 0 59902 63900.00000 0 -17754373.509 -1682883.043 18228735.474 10 0 59902 64800.00000 0 -19643177.104 -2650681.238 16041932.254 10 0 59902 65700.00000 0 -21343136.531 -3342412.267 13543223.620 10 0 59902 66600.00000 0 -22793263.252 -3776397.815 10781114.530 10 0 59902 67500.00000 0 -23939515.783 -3982425.803 7809269.093 10 0 59902 68400.00000 0 -24737038.250 -4000243.220 4685466.959 10 0 59902 69300.00000 0 -25152033.515 -3877626.025 1470475.891 10 0 59902 70200.00000 0 -25163191.014 -3668108.554 -1773137.159 10 0 59902 71100.00000 0 -24762608.151 -3428469.514 -4982232.538 10 0 59902 72000.00000 0 -23956165.548 -3216082.318 -8094336.915 10 0 59902 72900.00000 0 -22763339.760 -3086243.455 -11048869.564 10 0 59902 73800.00000 0 -21216461.043 -3089593.526 -13788330.829 10 0 59902 74700.00000 0 -19359447.509 -3269741.589 -16259428.521 10 0 59902 75600.00000 0 -17246069.240 -3661194.602 -18414119.567 10 0 59902 76500.00000 0 -14937815.734 -4287680.535 -20210546.227 10 0 59902 77400.00000 0 -12501456.782 -5160936.708 -21613848.524 10 0 59902 78300.00000 0 -10006399.348 -6280014.954 -22596837.431 10 0 59902 79200.00000 0 -7521951.241 -7631133.173 -23140516.323 10 0 59902 80100.00000 0 -5114605.871 -9188079.637 -23234441.308 10 0 59902 81000.00000 0 -2845460.890 -10913153.115 -22876914.372 10 0 59902 81900.00000 0 -767877.463 -12758599.490 -22075006.445 10 0 59902 82800.00000 0 1074523.446 -14668484.713 -20844410.739 10 0 59902 83700.00000 0 2649445.855 -16580925.888 -19209129.847 10 0 59902 84600.00000 0 3937020.409 -18430587.438 -17201003.081 10 0 59902 85500.00000 0 4930378.781 -20151338.240 -14859083.543 10 0 59903 0.00000 0 5635678.858 -21678958.928 -12228877.309 10 0 59903 900.00000 0 6071581.910 -22953787.374 -9361457.985 10 0 59903 1800.00000 0 6268204.525 -23923190.091 -6312477.361 10 0 59903 2700.00000 0 6265592.105 -24543759.331 -3141086.416 10 0 59903 3600.00000 0 6111778.327 -24783142.199 91209.046 10 0 59903 4500.00000 0 5860513.581 -24621426.349 3321737.447 10 0 59903 5400.00000 0 5568758.657 -24052024.343 6487872.080 10 0 59903 6300.00000 0 5294049.706 -23082019.705 9528240.117 10 0 59903 7200.00000 0 5091845.749 -21731960.151 12383906.715 10 0 59903 8100.00000 0 5012970.634 -20035106.421 14999511.662 10 0 59903 9000.00000 0 5101257.298 -18036167.655 17324336.999 10 0 59903 9900.00000 0 5391493.639 -15789575.580 19313285.340 10 0 59903 10800.00000 0 5907756.722 -13357368.664 20927750.554 10 0 59903 11700.00000 0 6662205.856 -10806773.471 22136364.459 10 0 59903 12600.00000 0 7654386.019 -8207582.886 22915605.482 10 0 59903 13500.00000 0 8871071.979 -5629439.182 23250257.788 10 0 59903 14400.00000 0 10286661.058 -3139133.742 23133712.030 10 0 59903 15300.00000 0 11864099.682 -798034.789 22568101.667 10 0 59903 16200.00000 0 13556306.699 1340250.849 21564271.671 10 0 59903 17100.00000 0 15308035.617 3231885.352 20141579.450 10 0 59903 18000.00000 0 17058099.358 4844393.729 18327530.828 10 0 59903 18900.00000 0 18741865.646 6157777.739 16157257.040 10 0 59903 19800.00000 0 20293919.340 7165103.615 13672841.731 10 0 59903 20700.00000 0 21650780.396 7872539.064 10922510.090 10 0 59903 21600.00000 0 22753563.256 8298838.262 7959695.118 10 0 59903 22500.00000 0 23550465.336 8474296.767 4841998.736 10 0 59903 23400.00000 0 23998978.955 8439220.864 1630068.040 10 0 59903 24300.00000 0 24067732.431 8241976.696 -1613591.052 10 0 59903 25200.00000 0 23737881.524 7936702.579 -4825838.943 10 0 59903 26100.00000 0 23003991.400 7580782.523 -7944141.271 10 0 59903 27000.00000 0 21874370.997 7232189.253 -10907796.348 10 0 59903 27900.00000 0 20370845.006 6946810.708 -13659126.045 10 0 59903 28800.00000 0 18527972.740 6775874.576 -16144605.784 10 0 59903 29700.00000 0 16391746.702 6763581.121 -18315910.900 10 0 59903 30600.00000 0 14017825.679 6945045.418 -20130858.553 10 0 59903 31500.00000 0 11469376.842 7344636.628 -21554226.705 10 0 59903 32400.00000 0 8814617.548 7974784.859 -22558434.548 10 0 59903 33300.00000 0 6124159.781 8835306.030 -23124071.721 10 0 59903 34200.00000 0 3468268.162 9913273.158 -23240266.764 10 0 59903 35100.00000 0 914145.511 11183439.278 -22904888.616 10 0 59903 36000.00000 0 -1476641.685 12609194.072 -22124578.050 10 0 59903 36900.00000 0 -3650491.676 14144013.880 -20914609.322 10 0 59903 37800.00000 0 -5563754.229 15733344.182 -19298585.309 10 0 59903 38700.00000 0 -7184294.737 17316835.713 -17307972.536 10 0 59903 39600.00000 0 -8492572.272 18830840.615 -14981485.388 10 0 59903 40500.00000 0 -9482188.623 20211064.268 -12364331.553 10 0 59903 41400.00000 0 -10159887.359 21395262.009 -9507333.260 10 0 59903 42300.00000 0 -10545004.771 22325867.991 -6465941.325 10 0 59903 43200.00000 0 -10668397.435 22952446.334 -3299160.924 10 0 59903 44100.00000 0 -10570892.838 23233862.047 -68409.746 10 0 59903 45000.00000 0 -10301329.301 23140080.890 3163669.427 10 0 59903 45900.00000 0 -9914268.552 22653522.803 6334418.881 10 0 59903 46800.00000 0 -9467477.790 21769912.108 9382375.663 10 0 59903 47700.00000 0 -9019287.614 20498588.685 12248457.505 10 0 59903 48600.00000 0 -8625937.236 18862266.718 14877102.376 10 0 59903 49500.00000 0 -8339018.788 16896250.477 17217340.038 10 0 59903 50400.00000 0 -8203128.263 14647139.196 19223775.242 10 0 59903 51300.00000 0 -8253821.968 12171074.098 20857464.123 10 0 59903 52200.00000 0 -8515964.570 9531599.452 22086667.346 10 0 59903 53100.00000 0 -9002538.530 6797225.567 22887465.806 10 0 59903 54000.00000 0 -9713965.587 4038793.718 23244227.297 10 0 59903 54900.00000 0 -10637969.746 1326751.220 23149915.152 10 0 59903 55800.00000 0 -11749988.701 -1271551.252 22606232.639 10 0 59903 56700.00000 0 -13014117.933 -3694428.909 21623599.872 10 0 59903 57600.00000 0 -14384549.378 -5888192.707 20220962.834 10 0 59903 58500.00000 0 -15807445.856 -7809143.476 18425437.304 10 0 59903 59400.00000 0 -17223173.873 -9425147.686 16271793.437 10 0 59903 60300.00000 0 -18568802.096 -10716729.368 13801789.883 10 0 59903 61200.00000 0 -19780761.029 -11677632.653 11063369.406 10 0 59903 62100.00000 0 -20797552.143 -12314831.490 8109730.871 10 0 59903 63000.00000 0 -21562392.035 -12647986.393 4998295.166 10 0 59903 63900.00000 0 -22025679.351 -12708371.351 1789585.241 10 0 59903 64800.00000 0 -22147179.339 -12537316.777 -1453957.610 10 0 59903 65700.00000 0 -21897832.546 -12184235.027 -4669197.448 10 0 59903 66600.00000 0 -21261109.971 -11704313.013 -7793542.443 10 0 59903 67500.00000 0 -20233856.284 -11155970.783 -10766173.415 10 0 59903 68400.00000 0 -18826584.485 -10598194.964 -13529237.049 10 0 59903 69300.00000 0 -17063208.909 -10087861.277 -16028979.418 10 0 59903 70200.00000 0 -14980227.381 -9677160.615 -18216796.974 10 0 59903 71100.00000 0 -12625386.706 -9411238.519 -20050184.057 10 0 59903 72000.00000 0 -10055887.610 -9326148.459 -21493558.338 10 0 59903 72900.00000 0 -7336204.422 -9447205.681 -22518948.421 10 0 59903 73800.00000 0 -4535610.737 -9787811.058 -23106530.793 10 0 59903 74700.00000 0 -1725514.414 -10348794.277 -23245006.430 10 0 59903 75600.00000 0 1023287.304 -11118303.583 -22931810.660 10 0 59903 76500.00000 0 3643318.819 -12072246.245 -22173153.077 10 0 59903 77400.00000 0 6072991.319 -13175260.724 -20983887.541 10 0 59903 78300.00000 0 8258916.547 -14382179.318 -19387215.444 10 0 59903 79200.00000 0 10157874.399 -15639919.594 -17414228.473 10 0 59903 80100.00000 0 11738354.055 -16889725.059 -15103299.991 10 0 59903 81000.00000 0 12981606.249 -18069661.000 -12499337.018 10 0 59903 81900.00000 0 13882164.706 -19117260.860 -9652907.205 10 0 59903 82800.00000 0 14447816.706 -19972212.161 -6619257.729 10 0 59903 83700.00000 0 14699025.798 -20578969.419 -3457244.939 10 0 59903 84600.00000 0 14667832.366 -20889184.481 -228195.321 10 0 59903 85500.00000 0 14396279.445 -20863852.328 3005280.202 99